This demonstration page uses our WeatherBlox Daily Observations layout. Learn more.

Left ArrowRight Arrow

Hourly Observations for September 4, 2018

Temp ( °F °C ) Dew Point ( °F °C ) Humidity (%) Winds ( mph kmh ) Pressure ( in mb ) Visibility ( mi km ) Precip ( " mm )
12:53 am 00:53 Clear 72 22.2 70 21.1 94 94 Calm 30.24 1024 10 16 0.00 0.00
1:53 am 01:53 Clear 72 22.2 70 21.1 94 94 Calm 30.23 1024 9 14 0.00 0.00
2:53 am 02:53 Clear 71 21.7 70 21.1 96 96 Calm 30.22 1024 8 13 0.00 0.00
3:53 am 03:53 Clear 71 21.7 69 20.6 94 94 Calm 30.22 1023 8 13 0.00 0.00
4:53 am 04:53 Clear with Mist and Fog 70 21.1 69 20.6 97 97 Calm 30.22 1023 5 8 0.00 0.00
5:53 am 05:53 Clear with Mist and Fog 70 21.1 68 20 93 93 Calm 30.22 1023 6 10 0.00 0.00
6:53 am 06:53 Clear with Mist and Fog 70 21.1 69 20.6 97 97 Calm 30.23 1024 6 10 0.00 0.00
7:53 am 07:53 Sunny 72 22.2 71 21.7 97 97 Calm 30.25 1024 7 11 0.00 0.00
8:53 am 08:53 Sunny 79 26.1 74 23.3 85 85 Calm 30.26 1025 10 16 0.00 0.00
9:53 am 09:53 Sunny 83 28.3 74 23.3 74 74 Calm 30.27 1025 10 16 0.00 0.00
10:53 am 10:53 Sunny 86 30 74 23.3 67 67 undefined N/A 30.26 1025 N/A 0.00 0.00
11:53 am 11:53 Sunny 90 32.2 72 22.2 56 56 Calm 30.25 1025 10 16 0.00 0.00
12:53 pm 12:53 Mostly Cloudy 89 31.7 72 22.2 57 57 Calm 30.24 1024 10 16 0.00 0.00
1:53 pm 13:53 Mostly Sunny 93 33.9 69 20.6 46 46 Calm 30.22 1023 10 16 0.00 0.00
2:53 pm 14:53 Mostly Cloudy 93 33.9 70 21.1 47 47 S 3 6 30.20 1023 10 16 0.00 0.00
3:53 pm 15:53 Mostly Sunny 93 33.9 68 20 44 44 VRB 3 6 30.17 1022 10 16 0.00 0.00
4:53 pm 16:53 Mostly Sunny 92 33.3 72 22.2 52 52 VRB 5 7 30.16 1022 10 16 0.00 0.00
5:53 pm 17:53 Partly Cloudy with Thunderstorms 87 30.6 67 19.4 51 51 VRB 3 6 30.16 1021 10 16 0.00 0.00
6:09 pm 18:09 Mostly Cloudy with Strong Thunderstorms 83 28.3 72 22.2 70 70 W 13 20 30.12 1020 2 3 0.08 2.03
6:16 pm 18:16 Mostly Cloudy with Thunderstorms 81 27.2 71 21.7 72 72 WNW 12 19 30.15 1021 1 2 0.09 2.29
6:20 pm 18:20 Mostly Cloudy with Thunderstorms 80 26.7 70 21.1 71 71 W 10 17 30.15 1021 3 5 0.09 2.29
6:38 pm 18:38 Mostly Sunny 78 25.6 71 21.7 79 79 Calm 30.15 1021 10 16 0.09 2.29
6:53 pm 18:53 Sunny 76 24.4 73 22.8 91 91 W 3 6 30.17 1022 10 16 0.09 2.29
7:53 pm 19:53 Sunny 76 24.4 75 23.9 97 97 Calm 30.15 1021 7 11 0.00 0.00
8:53 pm 20:53 Clear 74 23.3 73 22.8 97 97 Calm 30.16 1022 7 11 0.00 0.00
9:53 pm 21:53 Clear with Mist and Fog 73 22.8 72 22.2 96 96 Calm 30.18 1022 5 8 0.00 0.00
10:53 pm 22:53 Clear with Mist and Fog 72 22.2 71 21.7 97 97 Calm 30.19 1022 6 10 0.00 0.00
11:53 pm 23:53 Clear with Mist and Fog 71 21.7 70 21.1 96 96 Calm 30.19 1022 5 8 0.00 0.00

Powered by AerisWeather